GAOFEN-6

Last updated on Wed Jul 16 2025 00:02:31 GMT+0000 (Coordinated Universal Time)

1 43484U 18048A 25196.61815413 .00000516 00000+0 80940-4 0 9992 2 43484 97.8218 265.7401 0012832 175.8703 184.2616 14.76599546383729
UTC large
Height (km)
Speed (km/s)
/
Latitude / Longitude
Inclination (degrees)
Orbital Period (minutes)
Azimuth
Elevation
Range (km)
Doppler Factor

Next 0 passes for location: London (51.5072 / 0.1276)

Sorry there are no passes over London.